Lexington Weather

Lexington, Massachusetts, USA

34°F
4/16/2021 10:03am 
  • Lexington Conditions: Snow, Fog, Overcast
  • Temperature: 33.8°F / 1.0°CColder 1.3°F than last hour.
  • Dew Point: 32.5°FDecreased 0.9°Fsince last hour.
  • Relative Humidity: 95%Increased 1.0% since last hour.
  • Wind: Calm, 10-min avg: Calm, gust: None
  • Barometer: 29.50 in Steady
  • Visibility: ½ mile
  • Snow Today: 1.3 in
  •   

Regional Weather Roundup
for Boston / Norton, MA

        
000
ASUS41 KBOX 112304
RWRBOX

REGIONAL WEATHER ROUNDUP
NATIONAL WEATHER SERVICE BOSTON/NORTON MA
700 PM EDT SUN APR 11 2021

NOTE:  "FAIR" INDICATES FEW OR NO CLOUDS BELOW 12,000 FEET WITH NO 
SIGNIFICANT WEATHER AND/OR OBSTRUCTIONS TO VISIBILITY.

MAZALL-120000-
EASTERN MASSACHUSETTS
  
CITY           SKY/WX    TMP DP  RH WIND       PRES   REMARKS
BOSTON         CLOUDY    45  39  79 NE14      29.78R                  
BEVERLY        NOT AVBL                                               
LAWRENCE       CLOUDY    44  40  85 NE8       29.79S                  
BEDFORD        MOCLDY    46  39  76 E10       29.75S                  
BLUE HILL        N/A     40  40 100 NE9G18    29.73R                  
NORWOOD        CLOUDY    45  40  82 NE6       29.76S                  
MARSHFIELD     CLOUDY    45  43  93 NE13      29.76S                  
PLYMOUTH       CLOUDY    43  41  93 NE10      29.74S                  
TAUNTON        CLOUDY    44  41  89 NE9       29.74S                  
NEW BEDFORD    CLOUDY    46  42  86 NE14      29.72S                  
$$

MAZALL-120000-
CAPE COD AND THE ISLANDS
  
CITY           SKY/WX    TMP DP  RH WIND       PRES   REMARKS
FALMOUTH       CLOUDY    43  43 100 NE15G23   29.73S                  
HYANNIS        PTCLDY    46  42  86 NE12      29.71S                  
CHATHAM        CLOUDY    44  40  85 NE12      29.75S                  
PROVINCETOWN   CLOUDY    43  41  93 NE14      29.77S                  
NANTUCKET      CLOUDY    44  43  96 NE18G24   29.70F FOG              
MARTHAS VNYRD  CLOUDY    45  43  93 NE21G29   29.70S                  
$$
 
MAZALL-120000-
CENTRAL AND WESTERN MASSACHUSETTS
  
CITY           SKY/WX    TMP DP  RH WIND       PRES   REMARKS
WORCESTER      CLOUDY    46  39  76 E9        29.73R                  
FITCHBURG      PTCLDY    47  41  80 E6        29.76R                  
ORANGE         PTCLDY    49  39  68 SE8       29.75R                  
SPRINGFIELD    LGT RAIN  50  41  73 E9        29.72R                  
WESTFIELD      LGT RAIN  49  43  80 NE6       29.73R                  
NORTH ADAMS    CLOUDY    53  40  61 E14G23    29.69R                  
PITTSFIELD     LGT RAIN  48  43  82 VRB5G18   29.67S                  
$$
 
RIZALL-120000-
RHODE ISLAND
  
CITY           SKY/WX    TMP DP  RH WIND       PRES   REMARKS
PROVIDENCE     CLOUDY    47  42  83 NE14      29.74R                  
NEWPORT        CLOUDY    46  41  82 NE12      29.72R                  
BLOCK ISLAND   LGT RAIN  45  43  93 NE16G23   29.71R                  
SMITHFIELD     CLOUDY    44  43  96 NE7       29.75R                  
WESTERLY       LGT RAIN  46  42  86 NE13      29.69R                  
$$
 
CTZALL-120000-
CONNECTICUT
  
CITY           SKY/WX    TMP DP  RH WIND       PRES   REMARKS
BRADLEY INTL   CLOUDY    50  43  77 NE7       29.72R                  
HARTFORD       CLOUDY    53  41  63 NE9       29.71S                  
BRIDGEPORT     LGT RAIN  51  48  89 E14       29.65R                  
DANBURY        LGT RAIN  55  47  74 E17       29.65R                  
GROTON         LGT RAIN  49  45  86 NE16      29.68R                  
NEW HAVEN      CLOUDY    53  47  79 NE10      29.66R                  
CHESTER        LGT RAIN  50  46  87 NE13      29.67F                  
MERIDEN        CLOUDY    51  43  74 VRB6      29.68F                  
WILLIMANTIC    LGT RAIN  48  43  82 NE7       29.71S                  
OXFORD         CLOUDY    49  48  97 NE18      29.67R                  
$$

MEZ002-015-021-024-NHZ003-005-008-011-012-014-VTZ005-008-120000-
NORTHERN NEW ENGLAND
  
CITY           SKY/WX    TMP DP  RH WIND       PRES   REMARKS
PORTLAND ME    CLEAR     44  38  79 S6        29.79S                  
BANGOR ME      CLOUDY    58  30  34 N9        29.77R                  
CONCORD NH     CLEAR     50  38  63 SE8       29.75S                  
MANCHESTER NH  CLOUDY    49  38  65 E7        29.75S                  
NASHUA NH      PTCLDY    47  41  80 E9        29.77S                  
PORTSMOUTH NH  CLOUDY    43  38  85 E6        29.79S                  
JAFFREY NH     CLEAR     48  39  71 VRB6      29.74S                  
KEENE NH       PTCLDY    51  39  63 E5        29.74R                  
BURLINGTON VT  MOCLDY    67  43  41 E12       29.60R                  
MT. WASHINGTON PTCLDY    37   5  25 NE14        N/A  WCI  29          
$$

NYZ052-076-120000-
EASTERN NEW YORK
  
CITY           SKY/WX    TMP DP  RH WIND       PRES   REMARKS
ALBANY         LGT RAIN  56  47  71 VRB5      29.64R                  
NEW YORK CITY  LGT RAIN  51  47  86 NE18      29.61R                  
$$
 
ANZALL-120000-
MARINE OBSERVATIONS
  
STATION/POSITION TIME  TEMP    WIND        PRES    VSBY  WAVE
                       AIR SEA DIR/SP/G                  HT/PER
                 (UTC) (F)     (DEG/KT/KT) (MB)    (MI)  (FT/S)
BOSTON BUOY      2250   42 44   60/ 14/ 17 1008.5F         5/ 6
BUZZARDS BAY     2200           50/ 21/ 23 1006.3F
NANTUCKET SOUND  2250      47                N/A           3/ 4
MASS BAY-STELLWA 2204   43      60/ 12/ 14 1007.3   1 7/8  4/ 6
ISLE OF SHOALS   2200   42      80/  8/  9 1008.3R
S OF BLOCK IS    2226      45                N/A           5/ 5
$$

......................KEY.........................
  SKY/WX - SKY CONDITION/PRESENT WEATHER
  TMP    - TEMPERATURE IN FAHRENHEIT
  DWPT   - DEWPOINT IN FAHRENHEIT
  RH     - RELATIVE HUMIDITY IN PERCENT
  WIND   - DIRECTION AND SPEED IN MPH
  PRES   - MEAN SEA LEVEL PRESSURE IN INCHES OF HG
  WCI    - WIND CHILL INDEX
  VSB    - VISIBILITY IN MILES
  HX     - HEAT INDEX
  TC     - TEMPERATURE IN CELSIUS
  VRB    - VARIABLE WIND DIRECTION
  N/A    - NOT AVAILABLE
  
      

Other recent Regional Weather Roundups

Fri Apr 16, 9:04am

Fri Apr 16, 8:04am

Fri Apr 16, 7:04am

Fri Apr 16, 6:04am

Fri Apr 16, 5:04am

Fri Apr 16, 4:04am

Fri Apr 16, 3:04am

Fri Apr 16, 2:04am

Fri Apr 16, 1:04am

Fri Apr 16, 12:04am

Thu Apr 15, 11:05pm

Thu Apr 15, 10:04pm

Thu Apr 15, 9:04pm

Thu Apr 15, 8:04pm

Thu Apr 15, 7:05pm

Thu Apr 15, 6:04pm

Thu Apr 15, 5:05pm

Thu Apr 15, 4:04pm

Thu Apr 15, 3:05pm

Thu Apr 15, 2:04pm

Thu Apr 15, 1:05pm

Thu Apr 15, 12:04pm

Thu Apr 15, 11:04am

Thu Apr 15, 10:05am

Thu Apr 15, 9:04am

Thu Apr 15, 8:04am

Thu Apr 15, 7:04am

Thu Apr 15, 6:04am

Thu Apr 15, 5:04am

Thu Apr 15, 4:04am

Thu Apr 15, 3:04am

Thu Apr 15, 2:04am

Thu Apr 15, 1:04am

Thu Apr 15, 12:04am

Wed Apr 14, 11:04pm

Wed Apr 14, 10:04pm

Wed Apr 14, 9:04pm

Wed Apr 14, 8:04pm

Wed Apr 14, 7:04pm

Wed Apr 14, 6:04pm

Wed Apr 14, 5:05pm

Wed Apr 14, 4:04pm

Wed Apr 14, 3:05pm

Wed Apr 14, 2:04pm

Wed Apr 14, 1:05pm

Wed Apr 14, 12:04pm

Wed Apr 14, 11:04am

Wed Apr 14, 10:04am

Wed Apr 14, 9:04am

Wed Apr 14, 8:04am

Wed Apr 14, 7:04am

Wed Apr 14, 6:04am

Wed Apr 14, 5:04am

Wed Apr 14, 4:04am

Wed Apr 14, 3:04am

Wed Apr 14, 2:04am

Wed Apr 14, 1:04am

Wed Apr 14, 12:04am

Tue Apr 13, 11:04pm

Tue Apr 13, 10:05pm

Tue Apr 13, 9:05pm

Tue Apr 13, 8:05pm

Tue Apr 13, 7:04pm

Tue Apr 13, 6:04pm

Tue Apr 13, 5:05pm

Tue Apr 13, 4:04pm

Tue Apr 13, 3:04pm

Tue Apr 13, 2:05pm

Tue Apr 13, 1:04pm

Tue Apr 13, 12:05pm

Tue Apr 13, 11:05am

Tue Apr 13, 10:04am

Tue Apr 13, 9:04am

Tue Apr 13, 8:04am

Tue Apr 13, 7:04am

Tue Apr 13, 6:04am

Tue Apr 13, 5:04am

Tue Apr 13, 4:04am

Tue Apr 13, 3:04am

Tue Apr 13, 2:04am

Tue Apr 13, 1:04am

Tue Apr 13, 12:05am

Mon Apr 12, 11:04pm

Mon Apr 12, 10:04pm

Mon Apr 12, 9:04pm

Mon Apr 12, 8:04pm

Mon Apr 12, 7:05pm

Mon Apr 12, 6:04pm

Mon Apr 12, 5:04pm

Mon Apr 12, 4:04pm

Mon Apr 12, 3:05pm

Mon Apr 12, 2:04pm

Mon Apr 12, 1:05pm

Mon Apr 12, 12:04pm

Mon Apr 12, 11:04am

Mon Apr 12, 10:04am

Mon Apr 12, 9:04am

Mon Apr 12, 8:04am

Mon Apr 12, 7:04am

Mon Apr 12, 6:04am

Mon Apr 12, 5:04am

Mon Apr 12, 4:04am

Mon Apr 12, 3:04am

Mon Apr 12, 2:04am

Mon Apr 12, 1:05am

Mon Apr 12, 12:04am

Sun Apr 11, 11:04pm

Sun Apr 11, 10:04pm

Sun Apr 11, 9:04pm

Sun Apr 11, 8:04pm

Sun Apr 11, 6:05pm

Sun Apr 11, 5:05pm

Sun Apr 11, 4:04pm

Sun Apr 11, 3:05pm

Sun Apr 11, 2:05pm

Sun Apr 11, 1:05pm

Sun Apr 11, 12:04pm

Sun Apr 11, 11:05am

Sun Apr 11, 10:05am

Sun Apr 11, 9:04am

Sun Apr 11, 8:04am

Sun Apr 11, 7:04am

Sun Apr 11, 6:04am

Sun Apr 11, 5:04am

Sun Apr 11, 4:04am

Sun Apr 11, 3:04am

Sun Apr 11, 2:04am

Sun Apr 11, 1:05am

Sun Apr 11, 12:04am

Sat Apr 10, 11:05pm

Sat Apr 10, 10:04pm

Sat Apr 10, 9:04pm

Sat Apr 10, 8:04pm

Sat Apr 10, 7:05pm

Sat Apr 10, 6:04pm

Sat Apr 10, 5:04pm

Sat Apr 10, 4:04pm

Sat Apr 10, 3:04pm

Sat Apr 10, 2:05pm

Sat Apr 10, 1:04pm

Sat Apr 10, 12:04pm

Sat Apr 10, 11:04am

Sat Apr 10, 10:04am

Sat Apr 10, 9:04am

Sat Apr 10, 8:04am

Sat Apr 10, 7:04am

Sat Apr 10, 6:04am

Sat Apr 10, 5:04am

Sat Apr 10, 4:04am

Sat Apr 10, 3:04am

Sat Apr 10, 2:04am

Sat Apr 10, 1:05am

Sat Apr 10, 12:04am

Fri Apr 9, 11:04pm

Fri Apr 9, 10:05pm

Fri Apr 9, 9:04pm

Fri Apr 9, 8:05pm

Fri Apr 9, 7:05pm

Fri Apr 9, 6:04pm

Fri Apr 9, 5:04pm

Fri Apr 9, 4:05pm

Fri Apr 9, 3:05pm

Fri Apr 9, 2:04pm

Fri Apr 9, 1:04pm

Fri Apr 9, 12:04pm

Fri Apr 9, 11:05am

Fri Apr 9, 10:04am

Meta data:

ID: 243433df-f1f8-421c-9055-965c87af72d9
Link: https://api.weather.gov/products/243433df-f1f8-421c-9055-965c87af72d9